Probability
1 2 3 3 2 1 1 0 0 1 1 1 1 3 5 6 7 9 9 5 4 7 9 9 9 9 9 12 16 18 18 17 16 16 16 16 16 13 9 8 11 14 15 15
2 3 3 3 2 2 2 2 1 1 1 3 5 6 7 7 7 7 7 7 8 9 10 11 11 10 9 10 15 17 18 19 20 19 17 17 16 13 9 9 12 16 16 15
3 3 3 2 1 3 5 6 4 3 5 8 11 11 10 10 9 9 10 12 12 12 12 11 12 11 10 11 15 18 18 21 24 24 22 20 18 13 10 10 13 15 15 15
2 2 2 2 3 5 9 11 10 8 12 16 18 17 14 13 13 14 16 17 17 16 14 13 12 13 13 15 18 21 22 23 27 29 27 24 21 16 13 12 13 13 14 14
2 2 2 3 6 8 12 15 14 14 18 23 24 22 18 16 15 17 19 20 20 20 20 19 18 19 20 21 22 24 26 28 30 32 31 28 24 20 16 13 12 12 12 13
3 2 2 4 8 9 10 12 13 16 21 24 24 21 18 17 17 17 17 20 22 23 24 25 23 23 25 25 25 25 27 29 31 33 32 28 25 22 17 14 11 10 10 10
3 3 2 5 10 10 7 7 10 15 19 19 18 16 14 16 18 17 17 19 23 26 27 26 24 24 24 25 24 23 23 25 28 29 27 24 23 22 19 15 12 8 8 9
2 2 2 5 9 9 6 6 10 14 15 14 13 12 13 16 18 18 18 21 24 27 28 25 23 23 23 23 22 20 20 20 22 22 20 20 21 21 19 16 13 10 9 9
2 2 2 4 6 6 6 8 10 12 13 12 11 11 13 16 18 19 19 20 22 25 26 24 23 22 20 19 18 17 18 18 18 17 16 17 18 19 18 17 16 13 11 10
2 2 1 2 3 3 4 5 7 9 10 10 10 11 12 14 16 16 16 16 18 20 22 21 21 19 17 14 13 14 15 17 17 15 14 14 15 17 16 16 15 13 10 9
2 1 0 1 1 1 1 2 3 5 6 7 8 9 9 10 11 11 11 11 12 13 15 18 18 17 15 13 12 12 13 15 15 14 12 12 13 15 14 12 11 10 8 7
2 1 0 0 0 0 0 0 1 2 4 6 6 7 7 7 7 8 7 6 7 8 9 13 15 14 13 12 12 12 13 14 14 14 13 14 15 15 12 9 7 6 6 5
1 0 0 0 0 0 0 0 1 3 5 5 5 6 7 6 7 7 5 5 5 5 6 9 11 11 10 10 12 14 15 15 15 15 18 19 19 17 14 10 6 4 4 4
0 0 0 0 0 0 0 1 2 5 6 6 6 6 5 5 6 7 6 5 5 5 6 7 9 8 7 8 11 14 15 14 16 19 21 22 20 18 16 12 8 5 4 3
0 0 0 0 0 0 0 1 3 4 6 6 6 6 5 5 6 7 7 7 7 7 7 7 8 7 7 7 9 12 13 14 17 21 22 21 19 17 15 12 9 7 5 4
0 0 0 0 0 0 0 1 2 3 4 5 5 5 5 6 6 6 7 8 10 11 10 8 7 6 6 7 8 9 11 14 17 20 20 18 17 15 13 10 8 6 5 5
0 0 0 0 0 0 0 1 1 2 3 3 3 3 4 5 6 6 6 7 10 11 11 8 6 5 6 7 8 9 11 14 16 18 18 16 15 14 12 9 7 5 5 4
0 0 0 0 0 0 0 0 0 1 2 3 3 3 3 4 5 5 4 4 6 9 9 7 6 6 7 7 7 8 11 14 16 18 17 14 13 13 12 9 7 6 5 4
0 0 0 0 0 0 0 0 0 0 1 2 3 3 3 3 3 3 3 3 5 7 7 6 6 6 7 7 8 9 11 13 15 16 15 13 12 11 10 9 8 7 5 4
0 0 0 0 0 0 0 0 0 0 0 1 2 2 3 3 3 3 4 4 4 5 6 5 5 6 7 8 8 9 10 12 15 15 13 11 10 10 9 9 7 6 5 4
0 0 0 0 0 0 0 0 0 0 0 0 1 1 1 2 3 4 4 4 3 4 4 4 5 6 7 7 8 9 10 12 14 14 11 8 8 8 7 7 6 6 5 4
0 0 0 0 0 0 0 0 0 0 0 0 0 0 0 1 1 2 2 2 2 3 3 4 5 5 5 5 7 9 9 11 12 11 8 6 5 4 4 4 5 6 5 4
0 0 0 0 0 0 0 0 0 0 0 0 0 0 0 0 0 1 1 0 1 2 3 3 4 3 2 3 6 8 9 10 9 7 4 3 2 1 1 2 4 4 4 4
0 0 0 0 0 0 0 0 0 0 0 0 0 0 0 0 0 0 0 0 0 1 1 3 3 1 1 3 6 7 7 7 6 4 3 2 1 1 1 2 3 4 4 5
0 0 0 0 0 0 0 0 0 0 0 0 0 0 0 0 0 0 0 0 0 0 1 2 2 1 2 4 6 5 4 3 3 3 3 3 2 2 2 2 3 4 6 6
0 0 0 0 0 0 0 0 0 0 0 0 0 0 0 0 0 0 0 0 0 0 0 1 2 2 3 4 4 4 2 1 1 3 3 3 3 3 2 2 2 3 5 5
0 0 0 0 0 0 0 0 0 0 0 0 0 0 0 0 0 0 0 0 0 0 0 0 1 2 3 3 3 3 3 2 2 3 3 3 3 3 3 2 2 1 2 4
Wind_Speed
2 2 3 3 3 5 4 7 8 7 6 6 4 3 1 1 3 3 2 2 4 4 3 3 2 3 3 4 5 5 6 6 6 5 5 5 4 4 3 3 3 3 2 2
1 0 2 2 1 3 2 3 3 2 3 3 1 2 3 2 3 3 2 2 3 3 3 3 4 3 3 4 4 4 6 6 5 5 5 5 5 4 4 3 3 3 3 3
1 1 3 1 2 2 2 1 4 6 5 1 2 2 2 2 2 2 1 1 2 2 3 4 4 4 5 5 4 4 5 5 6 6 6 6 6 5 5 4 3 3 3 3
3 3 3 5 2 3 4 0 1 1 2 3 4 2 2 2 2 1 1 0 0 1 2 2 2 2 3 3 4 4 4 5 5 6 6 6 5 5 5 4 4 4 4 4
4 3 1 3 1 1 2 1 1 2 2 2 2 3 3 1 1 1 1 1 1 1 2 2 2 2 3 3 3 4 4 4 4 5 5 6 6 6 5 4 4 4 3 4
4 5 6 6 3 1 3 1 2 1 2 2 3 2 2 2 1 2 1 1 1 1 2 2 2 3 3 2 3 3 4 3 3 4 5 6 6 5 4 4 4 3 3 4
4 3 4 4 4 1 3 5 2 1 2 2 1 3 2 1 1 1 1 1 1 2 2 1 2 3 3 2 3 3 3 3 2 3 4 5 4 4 3 3 3 3 3 3
4 3 5 3 1 3 4 1 1 1 1 2 2 1 0 1 1 1 2 2 2 2 1 1 2 3 2 2 2 2 2 2 2 3 3 3 4 3 3 4 4 3 3 3
4 4 3 2 1 1 2 1 0 1 1 3 3 1 1 0 0 0 0 1 1 1 1 1 0 2 2 2 1 2 2 2 2 2 2 3 4 4 3 3 3 4 3 3
1 2 2 2 1 1 1 1 1 2 2 2 2 1 1 0 1 1 1 1 0 1 1 2 1 1 2 1 1 2 3 2 2 2 2 2 3 3 4 4 4 4 3 3
0 2 2 3 1 0 1 2 2 1 1 2 2 0 0 1 1 1 1 1 0 0 1 2 2 2 2 2 2 3 3 3 2 3 3 3 3 3 4 4 5 5 4 4
5 5 3 3 3 1 1 1 1 1 1 1 1 0 1 1 2 2 2 2 1 1 2 2 2 3 3 2 3 4 3 3 2 2 2 3 3 1 1 1 2 4 4 4
3 2 2 2 2 2 1 2 2 1 1 1 1 0 1 1 2 2 2 2 3 3 3 2 3 4 4 2 3 4 4 4 3 3 3 4 4 3 2 1 2 2 3 4
1 2 2 2 2 2 2 2 2 2 2 2 2 1 1 1 2 2 3 4 4 3 3 3 3 4 3 2 3 3 4 4 3 3 4 4 4 4 4 4 2 1 1 2
2 2 1 1 2 2 2 2 3 3 3 3 2 2 2 2 3 4 4 4 3 3 3 3 3 4 3 2 3 3 3 3 3 3 3 3 3 3 3 3 3 2 1 1
2 3 2 2 2 3 3 2 2 3 3 3 3 3 3 3 3 3 4 3 3 4 5 4 4 5 3 2 3 2 3 3 3 2 2 3 3 3 3 3 3 2 3 3
2 1 1 1 2 3 3 3 3 3 3 3 3 2 2 2 3 3 4 4 4 5 5 4 4 3 2 1 2 2 2 2 3 2 2 3 3 3 3 3 3 3 3 3
2 2 2 3 2 2 3 3 3 3 3 4 3 2 2 2 3 4 5 5 4 4 4 3 3 2 1 1 1 1 2 2 2 2 2 2 2 3 3 3 3 3 2 2
1 1 1 2 2 2 3 4 4 4 3 3 2 3 3 3 4 4 3 3 3 4 5 3 2 1 1 1 1 1 2 2 2 2 2 2 2 2 2 3 3 3 2 2
1 1 2 3 2 2 3 4 4 4 4 3 3 3 3 4 4 3 2 3 4 4 4 2 1 1 1 2 1 1 2 2 2 2 2 2 2 2 2 3 2 2 3 3
1 2 3 3 4 4 3 3 3 3 3 3 2 3 3 4 3 3 2 3 4 3 3 2 1 1 1 1 1 1 1 2 2 2 2 2 2 2 2 2 2 2 2 2
2 2 3 3 4 4 4 3 2 2 3 3 3 3 3 4 4 3 3 3 3 3 2 1 1 1 1 1 1 1 2 2 2 2 2 2 2 2 2 2 2 2 2 3
2 2 3 3 3 3 3 3 3 2 2 3 3 3 3 3 2 2 4 3 2 3 2 1 1 1 1 1 1 1 1 1 1 2 2 2 2 2 2 2 2 2 2 2
2 2 2 2 2 2 3 4 3 2 2 2 2 2 2 2 2 2 2 3 3 2 2 1 1 1 1 0 1 1 1 1 1 1 1 1 2 2 2 2 2 2 2 3
2 2 2 2 2 2 2 3 3 3 3 2 3 3 2 1 2 3 2 2 3 2 2 2 2 1 0 0 0 0 1 1 1 1 1 1 1 2 2 2 2 3 3 3
2 2 2 2 2 2 2 1 1 2 2 2 3 3 3 2 2 2 2 2 2 2 2 2 2 1 1 1 0 0 0 1 1 1 1 1 1 1 1 2 3 3 2 3
3 3 2 3 2 2 1 1 1 2 2 1 2 3 3 3 2 2 2 2 2 2 2 2 2 2 1 1 1 1 1 1 1 1 0 0 0 1 1 1 1 2 2 2
Wind_Direction
191 174 153 169 164 161 163 172 175 212 212 250 248 236 221 133 126 120 131 149 165 173 179 178 182 185 193 196 189 181 178 185 196 194 188 178 177 179 177 180 183 177 172 185
71 92 139 113 83 162 170 163 180 162 245 268 254 99 85 92 102 107 133 178 173 167 168 180 193 194 191 200 197 180 184 195 192 187 187 182 185 181 175 179 184 180 191 195
186 299 71 334 288 171 155 203 170 190 219 169 111 122 149 133 114 129 160 168 166 182 187 195 204 194 193 198 180 177 193 191 188 187 190 192 188 178 186 193 191 198 209 198
118 93 181 248 280 143 129 86 154 174 180 165 161 161 141 142 153 161 141 147 180 191 199 211 206 200 184 163 161 174 190 195 192 189 191 188 182 187 194 193 192 204 213 209
116 131 239 284 276 165 135 344 357 153 143 133 110 67 20 354 116 167 182 193 197 207 193 165 173 166 142 156 158 170 196 202 200 193 192 188 191 196 197 192 198 202 201 201
121 137 206 232 278 286 112 297 292 158 145 121 88 81 281 321 7 14 10 29 61 97 102 108 128 133 129 150 162 194 209 210 205 194 195 200 202 197 194 188 197 189 198 204
133 161 245 261 295 64 152 231 270 169 155 126 145 200 231 331 3 8 3 10 36 68 84 102 124 124 135 152 201 217 203 189 187 189 200 204 200 192 182 175 178 193 208 222
136 153 238 305 58 148 207 229 124 102 118 121 139 135 119 62 38 28 23 23 32 53 42 49 128 139 159 206 221 186 174 181 189 196 201 199 187 185 178 175 183 205 215 232
174 199 259 299 190 207 167 133 105 129 149 132 125 140 187 199 130 78 54 7 24 74 21 345 164 151 197 239 187 160 172 194 199 203 198 186 187 186 179 183 193 210 212 223
78 302 305 327 3 17 81 131 134 133 137 134 144 196 223 276 337 350 0 331 15 75 35 316 298 218 226 229 178 183 194 214 214 192 188 191 203 189 184 192 202 209 214 220
81 275 332 343 350 27 65 67 60 50 94 116 120 234 282 310 309 309 312 317 332 201 240 272 286 282 252 218 186 196 207 206 202 193 188 195 202 198 199 208 207 205 213 202
210 222 197 256 276 248 92 326 304 2 7 26 108 123 350 305 298 297 298 294 286 277 268 270 271 273 263 224 197 195 207 211 210 204 198 194 191 199 200 199 193 199 201 195
212 216 204 263 297 306 296 303 313 315 292 307 324 194 224 285 298 304 301 293 277 270 271 268 267 269 263 226 199 199 210 216 212 204 197 195 191 188 191 50 86 151 188 190
149 94 48 322 305 327 333 329 337 343 335 301 283 285 272 279 284 289 283 279 280 278 276 269 270 273 268 222 199 207 214 218 218 210 199 195 193 194 191 187 189 221 243 199
32 76 166 288 339 352 354 6 6 341 327 323 314 292 268 265 277 281 279 282 287 282 276 272 270 274 276 232 216 219 217 215 212 207 195 187 185 187 192 191 191 191 169 188
42 58 69 49 355 341 358 6 345 315 312 318 329 315 292 274 271 280 286 279 270 268 266 261 267 273 270 229 213 215 214 214 200 189 184 181 179 180 187 190 197 204 208 201
90 36 14 347 332 333 334 317 290 286 302 310 307 306 315 320 308 301 299 290 271 266 265 260 265 276 279 227 198 198 188 185 176 179 186 186 181 186 188 188 202 221 230 217
176 200 224 229 242 279 302 299 295 299 292 288 299 309 305 299 289 286 289 294 294 295 289 279 280 295 302 268 208 183 168 173 184 193 188 189 184 186 191 198 207 219 234 216
165 221 280 275 251 249 274 285 289 290 291 295 294 287 284 282 274 273 286 295 295 295 293 289 291 297 294 280 230 173 169 171 179 184 173 173 181 191 197 208 214 222 224 212
19 335 319 313 311 284 280 286 291 293 293 293 291 301 304 294 288 291 298 290 274 266 273 282 274 251 257 264 239 185 178 176 179 182 176 183 195 202 212 217 219 224 226 222
344 331 327 322 313 305 298 292 289 294 302 307 287 284 292 298 301 299 299 295 295 287 273 254 243 241 237 224 200 184 182 181 186 191 192 196 203 202 208 217 217 222 228 233
317 324 321 318 314 311 313 310 296 296 312 320 321 326 326 320 319 322 312 285 296 310 311 285 255 247 245 229 197 197 201 200 196 193 195 195 200 204 207 214 219 226 231 235
310 305 313 318 313 311 324 329 320 311 307 305 305 312 313 307 309 316 314 313 314 320 320 302 243 237 262 239 213 212 206 201 199 195 194 199 203 203 207 222 233 238 245 249
327 328 323 323 347 2 345 326 324 317 306 305 304 305 301 309 318 309 291 306 324 336 339 327 311 280 250 201 195 191 185 183 192 195 198 202 199 199 203 220 242 252 256 258
345 347 351 359 356 330 308 317 338 340 344 345 340 337 322 291 284 305 321 338 349 358 355 344 332 323 352 90 144 180 182 176 186 184 191 200 207 210 215 226 240 250 256 259
344 337 330 324 305 302 314 342 351 338 346 348 341 341 339 334 329 331 344 357 8 3 355 347 354 0 24 48 59 74 115 115 123 153 188 202 222 238 249 250 257 262 263 264
344 341 339 338 328 314 313 322 323 320 321 331 328 328 332 336 339 346 357 5 11 10 5 2 6 16 24 36 41 39 44 65 79 82 79 59 300 275 266 273 287 291 288 283